Cloud_Cover
93 31 88 100 99 100 90 6 15 5 15 4 5 0 0 0 1 5 0 3 4 20 4 0 0 0 0 0 0 0 4 0 0 0 0 0 0 0 0 0 0 0 0 0 0 1 3 0 0
5 33 12 86 92 75 64 5 5 51 6 4 28 0 0 0 0 2 1 0 2 2 0 1 0 0 0 0 0 0 0 0 0 0 0 0 0 0 0 0 0 0 0 0 5 12 6 4 9
5 86 100 100 100 100 36 4 5 97 5 3 5 5 5 0 3 5 5 0 0 2 1 0 0 0 0 0 0 0 0 0 0 0 0 0 0 0 0 0 0 4 1 0 0 2 15 17 5
28 12 100 100 100 100 100 5 88 44 5 4 5 5 4 4 1 0 0 0 0 5 1 0 0 0 5 0 0 0 0 0 0 0 0 0 0 0 2 72 93 56 60 3 1 1 5 11 14
62 60 42 91 79 100 100 10 5 5 5 5 5 5 5 5 5 0 1 5 5 5 4 0 0 0 0 0 0 0 0 0 0 0 0 0 0 1 4 84 91 100 92 87 99 6 0 96 99
5 5 3 10 86 53 23 5 5 5 5 5 5 26 8 8 8 4 5 5 5 8 5 4 3 2 0 0 0 0 0 0 0 0 0 0 0 6 0 4 22 96 98 100 100 100 5 6 60
8 5 34 72 100 96 52 5 5 5 5 5 5 5 5 43 48 5 3 5 45 53 5 5 5 1 0 0 0 0 0 0 0 0 0 0 0 0 0 5 5 94 100 100 100 100 17 5 91
60 6 97 94 100 100 51 8 0 4 5 5 5 5 5 5 88 5 5 51 96 50 97 46 25 0 0 0 0 0 0 0 0 0 0 0 0 0 0 0 5 10 82 100 51 5 5 3 0
70 8 100 100 100 99 6 3 3 5 5 30 0 5 5 5 2 4 5 99 84 18 96 100 5 0 0 0 0 0 0 0 2 0 0 0 0 0 0 0 0 0 0 0 5 4 1 0 0
6 19 98 100 97 14 65 5 56 5 13 100 4 5 5 5 5 6 26 82 74 97 87 6 5 3 2 0 0 0 0 0 0 0 0 0 0 0 0 0 0 0 0 13 25 23 4 5 11
71 99 49 100 100 32 11 69 82 66 96 20 68 48 5 5 5 5 50 75 91 44 5 9 43 5 0 0 0 0 0 0 0 0 0 0 0 0 0 0 0 0 0 0 0 0 0 6 36
24 95 5 65 55 5 18 90 100 52 96 47 34 6 5 5 6 5 28 10 5 5 5 56 15 5 3 0 5 0 0 0 0 0 0 0 0 0 3 0 5 2 0 0 0 1 0 0 6
3 3 3 5 5 10 95 94 93 100 98 100 22 5 16 3 14 25 89 49 4 2 4 30 5 3 5 5 5 5 0 0 0 0 0 0 2 18 18 10 8 9 5 5 5 24 38 5 16
5 5 5 4 58 91 24 100 22 100 99 33 5 4 5 5 12 100 83 14 0 0 80 56 4 26 5 5 5 5 0 0 0 0 0 0 0 2 15 14 6 5 5 85 46 5 2 5 8
6 25 6 28 100 27 100 100 83 88 100 7 5 0 1 95 100 60 48 0 0 0 20 94 92 3 0 0 2 0 0 0 0 0 0 0 0 3 34 42 40 23 74 75 68 5 0 5 5
85 100 100 100 100 100 100 100 52 86 35 5 3 28 100 100 100 32 5 0 0 0 0 0 0 0 0 0 0 0 0 0 0 0 0 0 4 29 62 71 61 79 82 28 5 5 5 2 6
100 97 76 92 100 100 89 0 97 26 4 5 100 100 100 100 55 4 0 0 0 0 0 0 0 0 0 0 0 0 0 0 0 0 0 0 17 52 76 100 100 100 81 62 8 33 16 3 10
19 1 0 0 61 92 20 7 29 40 92 100 100 100 57 66 2 0 0 0 0 0 0 0 0 0 4 0 0 0 0 0 0 0 0 4 29 60 98 99 100 100 96 81 100 74 6 5 5
0 0 0 0 1 5 35 11 98 100 100 100 100 9 0 0 0 0 0 0 0 0 0 4 5 5 5 0 0 0 0 0 0 0 0 10 31 20 78 68 100 100 100 98 76 92 10 5 5
3 0 0 0 0 15 5 1 0 0 100 38 28 0 5 5 5 0 5 0 0 0 0 5 5 5 5 0 0 0 0 0 0 0 0 34 14 40 61 71 90 98 100 100 100 99 45 5 5
4 0 3 18 36 5 5 1 0 0 0 0 0 3 5 0 0 5 1 0 0 2 45 5 5 5 0 0 0 0 0 0 0 0 3 17 5 6 58 46 36 100 99 71 37 40 34 19 4
5 94 8 29 21 3 5 0 0 0 0 2 14 5 4 0 5 2 0 0 0 1 1 0 5 4 0 0 0 0 0 0 0 0 11 18 5 53 78 98 53 29 6 4 7 8 14 0 0
8 46 19 5 0 0 0 0 21 0 44 100 32 0 4 6 44 0 0 0 0 0 0 5 1 0 0 0 0 0 0 0 0 0 20 54 86 24 75 6 5 3 0 5 0 5 5 0 0
65 30 0 0 0 0 0 0 100 96 58 12 2 88 6 49 0 0 0 0 0 0 0 0 0 0 0 0 0 0 0 0 0 3 4 30 46 71 7 4 5 4 0 4 5 5 4 5 10
1 7 42 1 0 0 4 25 100 34 44 53 98 15 60 0 2 4 0 0 0 0 0 0 0 0 0 0 0 0 0 0 2 5 5 25 48 20 5 1 5 0 4 2 5 4 27 100 100
95 70 41 4 1 2 0 95 100 10 2 96 58 6 5 8 7 0 0 0 0 0 0 0 0 0 0 0 0 0 0 0 5 8 5 5 13 0 0 1 3 0 0 0 2 88 100 100 100
30 2 86 0 0 11 62 94 100 2 65 68 11 62 13 13 5 0 0 0 0 0 0 0 0 0 0 0 0 0 0 5 5 5 5 5 0 0 0 0 0 0 0 88 99 100 100 100 100
0 0 0 0 1 100 100 99 100 24 95 13 100 100 87 5 1 0 0 0 0 0 0 0 0 0 0 0 0 0 0 4 0 5 5 5 0 0 0 2 5 5 6 85 100 100 100 100 100
0 0 0 2 99 100 100 100 14 100 2 91 100 87 30 13 3 0 0 0 0 0 0 0 0 0 0 0 0 0 0 20 7 5 5 5 3 0 0 0 3 5 5 74 99 100 92 85 86
0 0 0 0 100 100 100 80 6 77 5 100 100 69 45 92 1 5 0 0 0 0 0 0 0 0 0 0 0 0 11 6 61 6 5 5 5 9 44 3 7 39 47 99 100 78 100 100 100